Time,TemperatureF,DewpointF,PressureIn,WindDirection,WindDirectionDegrees,WindSpeedMPH,WindSpeedGustMPH,Humidity,HourlyPrecipIn,Conditions,Clouds,dailyrainin,SoftwareType,DateUTC
2013-08-18 00:01:00,69.2,68.3,30.12,West,278,1.0,0.0,97,0.01,RA,,0.24,WeatherDisplay:10.37,2013-08-18 04:01:00,
2013-08-18 00:02:00,69.2,68.3,30.12,WNW,294,1.1,0.0,97,0.01,RA,,0.00,WeatherDisplay:10.37,2013-08-18 04:02:00,
2013-08-18 00:07:00,69.2,68.3,30.12,WNW,294,0.0,0.0,97,0.01,RA,,0.00,WeatherDisplay:10.37,2013-08-18 04:07:00,
2013-08-18 00:12:00,69.2,68.3,30.12,WNW,294,0.0,0.0,97,0.01,,,0.00,WeatherDisplay:10.37,2013-08-18 04:12:00,
2013-08-18 00:17:00,69.2,68.3,30.12,WNW,294,0.0,0.0,97,0.01,,,0.00,WeatherDisplay:10.37,2013-08-18 04:17:00,
2013-08-18 00:22:00,69.2,68.3,30.12,SE,135,1.1,1.1,97,0.01,,,0.00,WeatherDisplay:10.37,2013-08-18 04:22:00,
2013-08-18 00:27:00,69.2,68.3,30.11,SE,136,0.0,0.0,97,0.01,,,0.00,WeatherDisplay:10.37,2013-08-18 04:27:00,
2013-08-18 00:32:00,69.2,68.3,30.11,SE,136,0.0,0.0,97,0.01,,,0.00,WeatherDisplay:10.37,2013-08-18 04:32:00,
2013-08-18 00:37:00,69.2,68.3,30.11,SE,135,0.0,0.0,97,0.02,RA,,0.01,WeatherDisplay:10.37,2013-08-18 04:37:00,
2013-08-18 00:42:00,69.2,68.3,30.11,SE,135,0.0,0.0,97,0.02,RA,,0.01,WeatherDisplay:10.37,2013-08-18 04:42:00,
2013-08-18 00:47:00,69.2,68.3,30.11,SE,135,0.0,0.0,97,0.02,,,0.01,WeatherDisplay:10.37,2013-08-18 04:47:00,
2013-08-18 00:52:00,69.2,68.3,30.11,SE,138,1.1,0.0,97,0.01,,,0.01,WeatherDisplay:10.37,2013-08-18 04:52:00,
2013-08-18 00:57:00,69.2,68.3,30.10,SE,138,0.0,0.0,97,0.01,,,0.01,WeatherDisplay:10.37,2013-08-18 04:57:00,
2013-08-18 01:02:00,69.2,68.3,30.10,SE,143,0.0,0.0,97,0.01,,,0.01,WeatherDisplay:10.37,2013-08-18 05:02:00,
2013-08-18 01:07:00,69.1,68.2,30.11,SE,138,1.1,1.1,97,0.01,,,0.01,WeatherDisplay:10.37,2013-08-18 05:07:00,
2013-08-18 01:12:00,69.1,68.2,30.10,SE,139,0.0,0.0,97,0.01,,,0.01,WeatherDisplay:10.37,2013-08-18 05:12:00,
2013-08-18 01:17:00,69.2,68.3,30.10,SE,138,0.0,0.0,97,0.01,,,0.01,WeatherDisplay:10.37,2013-08-18 05:17:00,
2013-08-18 01:22:00,69.2,68.3,30.10,SE,138,0.0,0.0,97,0.01,,,0.01,WeatherDisplay:10.37,2013-08-18 05:22:00,
2013-08-18 01:27:00,69.2,68.3,30.10,SE,138,0.0,0.0,97,0.01,,,0.01,WeatherDisplay:10.37,2013-08-18 05:27:00,
2013-08-18 01:32:00,69.1,68.2,30.10,SE,138,0.0,0.0,97,0.01,,,0.01,WeatherDisplay:10.37,2013-08-18 05:32:00,
2013-08-18 01:37:00,69.2,68.3,30.10,SE,141,1.1,0.0,97,0.00,,,0.01,WeatherDisplay:10.37,2013-08-18 05:37:00,
2013-08-18 01:42:00,69.2,68.3,30.10,SE,141,0.0,0.0,97,0.00,,,0.01,WeatherDisplay:10.37,2013-08-18 05:42:00,
2013-08-18 01:47:00,69.2,68.3,30.10,East,89,0.0,0.0,97,0.00,,,0.01,WeatherDisplay:10.37,2013-08-18 05:47:00,
2013-08-18 01:52:00,69.2,68.3,30.10,East,94,0.0,0.0,97,0.00,,,0.01,WeatherDisplay:10.37,2013-08-18 05:52:00,
2013-08-18 01:57:00,69.2,68.3,30.10,SE,124,1.1,1.1,97,0.00,,,0.01,WeatherDisplay:10.37,2013-08-18 05:57:00,
2013-08-18 02:02:00,69.2,68.3,30.10,SE,129,0.0,0.0,97,0.00,,,0.01,WeatherDisplay:10.37,2013-08-18 06:02:00,
2013-08-18 02:07:00,69.2,68.3,30.10,ESE,121,0.0,0.0,97,0.00,,,0.01,WeatherDisplay:10.37,2013-08-18 06:07:00,
2013-08-18 02:12:00,69.2,68.3,30.10,ESE,122,0.0,0.0,97,0.00,,,0.01,WeatherDisplay:10.37,2013-08-18 06:12:00,
2013-08-18 02:17:00,69.2,68.3,30.10,ESE,122,0.0,0.0,97,0.00,,,0.01,WeatherDisplay:10.37,2013-08-18 06:17:00,
2013-08-18 02:22:00,69.2,68.3,30.10,SSE,148,2.3,2.3,97,0.00,,,0.01,WeatherDisplay:10.37,2013-08-18 06:22:00,
2013-08-18 02:27:00,69.2,68.3,30.10,SSE,148,0.0,0.0,97,0.00,,,0.01,WeatherDisplay:10.37,2013-08-18 06:27:00,
2013-08-18 02:32:00,69.2,68.3,30.09,East,100,0.0,0.0,97,0.00,,,0.01,WeatherDisplay:10.37,2013-08-18 06:32:00,
2013-08-18 02:37:00,69.2,68.3,30.09,WSW,245,1.1,1.1,97,0.00,,,0.01,WeatherDisplay:10.37,2013-08-18 06:37:00,
2013-08-18 02:42:00,69.3,68.4,30.10,WSW,245,0.0,0.0,97,0.00,,,0.01,WeatherDisplay:10.37,2013-08-18 06:42:00,
2013-08-18 02:47:00,69.2,68.3,30.09,East,92,3.5,3.5,97,0.00,,,0.01,WeatherDisplay:10.37,2013-08-18 06:47:00,
2013-08-18 02:52:00,69.3,68.4,30.09,ESE,103,0.0,0.0,97,0.00,,,0.01,WeatherDisplay:10.37,2013-08-18 06:52:00,
2013-08-18 02:57:00,69.2,68.3,30.09,SSW,211,1.1,1.1,97,0.00,,,0.01,WeatherDisplay:10.37,2013-08-18 06:57:00,
2013-08-18 03:02:00,69.2,68.3,30.09,SE,139,1.1,1.1,97,0.00,,,0.01,WeatherDisplay:10.37,2013-08-18 07:02:00,
2013-08-18 03:07:00,69.2,68.3,30.09,ENE,63,3.5,0.0,97,0.00,,,0.01,WeatherDisplay:10.37,2013-08-18 07:07:00,
2013-08-18 03:12:00,69.3,68.4,30.09,SW,228,1.1,1.1,97,0.00,,,0.01,WeatherDisplay:10.37,2013-08-18 07:12:00,
2013-08-18 03:17:00,69.3,68.4,30.09,ENE,58,0.0,0.0,97,0.00,,,0.01,WeatherDisplay:10.37,2013-08-18 07:17:00,
2013-08-18 03:22:00,69.3,68.4,30.09,NE,56,1.1,0.0,97,0.00,,,0.01,WeatherDisplay:10.37,2013-08-18 07:22:00,
2013-08-18 03:27:00,69.3,68.4,30.09,NE,56,0.0,0.0,97,0.00,,,0.01,WeatherDisplay:10.37,2013-08-18 07:27:00,
2013-08-18 03:32:00,69.3,68.4,30.09,NE,56,0.0,0.0,97,0.00,,,0.01,WeatherDisplay:10.37,2013-08-18 07:32:00,
2013-08-18 03:38:00,69.3,68.4,30.09,NE,55,0.0,0.0,97,0.00,,,0.01,WeatherDisplay:10.37,2013-08-18 07:38:00,
2013-08-18 03:43:00,69.4,68.5,30.09,East,86,1.1,1.1,97,0.00,,,0.01,WeatherDisplay:10.37,2013-08-18 07:43:00,
2013-08-18 03:48:00,69.4,68.5,30.09,ESE,102,2.3,2.3,97,0.00,,,0.01,WeatherDisplay:10.37,2013-08-18 07:48:00,
2013-08-18 03:53:00,69.4,68.5,30.09,East,98,2.3,0.0,97,0.00,,,0.01,WeatherDisplay:10.37,2013-08-18 07:53:00,
2013-08-18 03:58:00,69.4,68.5,30.09,East,90,0.0,0.0,97,0.00,,,0.01,WeatherDisplay:10.37,2013-08-18 07:58:00,
2013-08-18 04:03:00,69.5,68.6,30.09,East,81,1.1,1.1,97,0.00,,,0.01,WeatherDisplay:10.37,2013-08-18 08:03:00,
2013-08-18 04:08:00,69.5,68.6,30.09,SE,126,0.0,0.1,97,0.00,,,0.01,WeatherDisplay:10.37,2013-08-18 08:08:00,
2013-08-18 04:13:00,69.5,68.6,30.09,ESE,115,0.0,0.0,97,0.00,,,0.01,WeatherDisplay:10.37,2013-08-18 08:13:00,
2013-08-18 04:18:00,69.5,68.6,30.09,East,96,1.1,0.0,97,0.00,,,0.01,WeatherDisplay:10.37,2013-08-18 08:18:00,
2013-08-18 04:23:00,69.5,68.6,30.09,South,181,2.3,2.3,97,0.00,,,0.01,WeatherDisplay:10.37,2013-08-18 08:23:00,
2013-08-18 04:28:00,69.6,68.7,30.09,SSW,210,3.5,3.5,97,0.00,,,0.01,WeatherDisplay:10.37,2013-08-18 08:28:00,
2013-08-18 04:33:00,69.6,68.7,30.09,ESE,117,2.3,2.3,97,0.00,,,0.01,WeatherDisplay:10.37,2013-08-18 08:33:00,
2013-08-18 04:38:00,69.6,68.7,30.09,ESE,113,1.1,1.1,97,0.00,,,0.01,WeatherDisplay:10.37,2013-08-18 08:38:00,
2013-08-18 04:43:00,69.6,68.7,30.09,WNW,287,1.1,1.1,97,0.00,,,0.01,WeatherDisplay:10.37,2013-08-18 08:43:00,
2013-08-18 04:48:00,69.7,68.8,30.09,West,262,0.0,0.0,97,0.00,,,0.01,WeatherDisplay:10.37,2013-08-18 08:48:00,
2013-08-18 04:53:00,69.7,68.8,30.09,West,262,0.0,0.0,97,0.00,,,0.01,WeatherDisplay:10.37,2013-08-18 08:53:00,
2013-08-18 04:58:00,69.7,68.8,30.09,ESE,106,2.3,2.3,97,0.00,,,0.01,WeatherDisplay:10.37,2013-08-18 08:58:00,
2013-08-18 05:03:00,69.8,68.9,30.09,WNW,286,1.1,1.1,97,0.01,RA,,0.02,WeatherDisplay:10.37,2013-08-18 09:03:00,
2013-08-18 05:08:00,69.8,68.9,30.10,West,263,2.3,2.3,97,0.02,RA,,0.04,WeatherDisplay:10.37,2013-08-18 09:08:00,
2013-08-18 05:13:00,69.8,68.9,30.09,West,262,0.0,0.0,97,0.04,RA,,0.05,WeatherDisplay:10.37,2013-08-18 09:13:00,
2013-08-18 05:18:00,69.8,68.9,30.09,West,262,0.0,0.0,97,0.04,RA,,0.05,WeatherDisplay:10.37,2013-08-18 09:18:00,
2013-08-18 05:23:00,69.8,68.9,30.10,West,262,0.0,0.0,97,0.04,,,0.05,WeatherDisplay:10.37,2013-08-18 09:23:00,
2013-08-18 05:28:00,69.9,69.0,30.10,West,262,0.0,0.0,97,0.04,,,0.06,WeatherDisplay:10.37,2013-08-18 09:28:00,
2013-08-18 05:33:00,69.9,69.0,30.10,West,262,1.1,1.1,97,0.05,RA,,0.06,WeatherDisplay:10.37,2013-08-18 09:33:00,
2013-08-18 05:38:00,69.9,69.0,30.10,West,262,0.0,0.0,97,0.05,RA,,0.06,WeatherDisplay:10.37,2013-08-18 09:38:00,
2013-08-18 05:43:00,69.9,69.3,30.09,West,281,0.0,0.0,98,0.05,,,0.06,WeatherDisplay:10.37,2013-08-18 09:43:00,
2013-08-18 05:48:00,69.9,69.0,30.10,East,92,0.0,0.0,97,0.05,,,0.06,WeatherDisplay:10.37,2013-08-18 09:48:00,
2013-08-18 05:53:00,69.8,68.9,30.10,SSE,160,0.0,0.0,97,0.05,,,0.06,WeatherDisplay:10.37,2013-08-18 09:53:00,
2013-08-18 05:58:00,69.8,68.9,30.10,NE,51,0.0,0.1,97,0.05,,,0.06,WeatherDisplay:10.37,2013-08-18 09:58:00,
2013-08-18 06:03:00,69.7,68.8,30.10,NE,51,0.0,0.0,97,0.04,,,0.06,WeatherDisplay:10.37,2013-08-18 10:03:00,
2013-08-18 06:08:00,69.7,68.8,30.10,NE,53,0.0,0.0,97,0.03,CLR,,0.06,WeatherDisplay:10.37,2013-08-18 10:08:00,
2013-08-18 06:13:00,69.7,68.8,30.10,NE,54,0.0,0.0,97,0.01,CLR,,0.06,WeatherDisplay:10.37,2013-08-18 10:13:00,
2013-08-18 06:18:00,69.8,68.9,30.11,East,91,0.0,0.0,97,0.01,CLR,,0.06,WeatherDisplay:10.37,2013-08-18 10:18:00,
2013-08-18 06:23:00,69.8,69.2,30.10,ENE,70,1.1,1.1,98,0.01,CLR,,0.06,WeatherDisplay:10.37,2013-08-18 10:23:00,
2013-08-18 06:28:00,69.8,68.9,30.11,SE,126,0.0,0.0,97,0.01,CLR,,0.06,WeatherDisplay:10.37,2013-08-18 10:28:00,
2013-08-18 06:33:00,69.7,68.8,30.11,SE,128,0.0,0.0,97,0.00,CLR,,0.06,WeatherDisplay:10.37,2013-08-18 10:33:00,
2013-08-18 06:38:00,69.7,68.8,30.11,SW,226,3.5,3.5,97,0.00,CLR,,0.06,WeatherDisplay:10.37,2013-08-18 10:38:00,
2013-08-18 06:43:00,69.6,69.0,30.11,SSW,200,2.3,0.0,98,0.00,CLR,,0.06,WeatherDisplay:10.37,2013-08-18 10:43:00,
2013-08-18 06:48:00,69.6,68.7,30.11,West,278,0.0,0.3,97,0.00,CLR,,0.06,WeatherDisplay:10.37,2013-08-18 10:48:00,
2013-08-18 06:53:00,69.5,68.6,30.12,WSW,238,2.3,2.3,97,0.00,CLR,,0.06,WeatherDisplay:10.37,2013-08-18 10:53:00,
2013-08-18 06:58:00,69.3,68.4,30.12,SSW,208,0.0,0.0,97,0.00,CLR,,0.06,WeatherDisplay:10.37,2013-08-18 10:58:00,
2013-08-18 07:03:00,69.2,68.3,30.12,West,269,0.0,0.0,97,0.00,CLR,,0.06,WeatherDisplay:10.37,2013-08-18 11:03:00,
2013-08-18 07:08:00,69.1,68.2,30.12,West,269,0.0,0.0,97,0.00,CLR,,0.06,WeatherDisplay:10.37,2013-08-18 11:08:00,
2013-08-18 07:13:00,69.1,68.2,30.13,West,276,1.1,1.1,97,0.00,CLR,,0.06,WeatherDisplay:10.37,2013-08-18 11:13:00,
2013-08-18 07:18:00,69.0,68.1,30.13,SW,222,1.1,1.1,97,0.00,CLR,,0.06,WeatherDisplay:10.37,2013-08-18 11:18:00,
2013-08-18 07:23:00,69.1,68.2,30.13,North,9,1.1,1.1,97,0.00,CLR,,0.06,WeatherDisplay:10.37,2013-08-18 11:23:00,
2013-08-18 07:28:00,69.1,68.2,30.13,WSW,248,2.0,0.0,97,0.00,CLR,,0.06,WeatherDisplay:10.37,2013-08-18 11:28:00,
2013-08-18 07:33:00,69.1,68.2,30.13,West,269,0.0,0.0,97,0.00,CLR,,0.06,WeatherDisplay:10.37,2013-08-18 11:33:00,
2013-08-18 07:38:00,69.1,68.2,30.13,SW,234,2.0,0.0,97,0.00,CLR,,0.06,WeatherDisplay:10.37,2013-08-18 11:38:00,
2013-08-18 07:43:00,69.1,68.2,30.13,NNE,13,0.0,0.0,97,0.00,CLR,,0.06,WeatherDisplay:10.37,2013-08-18 11:43:00,
2013-08-18 07:48:00,69.2,68.3,30.13,SE,134,0.0,0.0,97,0.00,CLR,,0.06,WeatherDisplay:10.37,2013-08-18 11:48:00,
2013-08-18 07:53:00,69.1,68.2,30.14,NW,304,2.0,2.0,97,0.00,CLR,,0.06,WeatherDisplay:10.37,2013-08-18 11:53:00,
2013-08-18 07:58:00,69.2,68.3,30.14,SE,136,1.1,1.1,97,0.00,CLR,,0.06,WeatherDisplay:10.37,2013-08-18 11:58:00,
2013-08-18 08:03:00,69.1,68.2,30.14,SW,236,0.0,0.0,97,0.00,CLR,,0.06,WeatherDisplay:10.37,2013-08-18 12:03:00,
2013-08-18 08:08:00,69.2,68.3,30.14,NNE,26,1.1,1.1,97,0.00,CLR,,0.06,WeatherDisplay:10.37,2013-08-18 12:08:00,
2013-08-18 08:13:00,69.2,68.3,30.14,WSW,242,0.0,0.0,97,0.00,CLR,,0.06,WeatherDisplay:10.37,2013-08-18 12:13:00,
2013-08-18 08:18:00,69.2,68.3,30.14,SW,222,1.1,0.0,97,0.00,CLR,,0.06,WeatherDisplay:10.37,2013-08-18 12:18:00,
2013-08-18 08:23:00,69.3,68.4,30.14,NE,46,1.1,1.1,97,0.00,CLR,,0.06,WeatherDisplay:10.37,2013-08-18 12:23:00,
2013-08-18 08:28:00,69.2,68.3,30.14,West,281,2.3,2.3,97,0.00,CLR,,0.06,WeatherDisplay:10.37,2013-08-18 12:28:00,
2013-08-18 08:33:00,69.2,68.3,30.14,NW,305,1.1,1.1,97,0.00,CLR,,0.06,WeatherDisplay:10.37,2013-08-18 12:33:00,
2013-08-18 08:38:00,69.3,68.4,30.14,NNW,335,2.0,2.0,97,0.00,CLR,,0.06,WeatherDisplay:10.37,2013-08-18 12:38:00,
2013-08-18 08:43:00,69.3,68.4,30.15,WNW,288,3.5,3.5,97,0.00,CLR,,0.06,WeatherDisplay:10.37,2013-08-18 12:43:00,
2013-08-18 08:48:00,69.4,68.5,30.14,SSE,150,0.0,0.0,97,0.00,CLR,,0.06,WeatherDisplay:10.37,2013-08-18 12:48:00,
2013-08-18 08:53:00,69.4,68.5,30.14,NW,305,2.3,2.3,97,0.00,CLR,,0.06,WeatherDisplay:10.37,2013-08-18 12:53:00,
2013-08-18 08:58:00,69.5,68.6,30.14,NE,51,3.5,3.5,97,0.00,CLR,,0.06,WeatherDisplay:10.37,2013-08-18 12:58:00,
2013-08-18 09:03:00,69.5,68.6,30.14,WSW,240,1.1,0.0,97,0.00,CLR,,0.06,WeatherDisplay:10.37,2013-08-18 13:03:00,
2013-08-18 09:08:00,69.5,68.3,30.14,West,273,3.0,3.0,96,0.00,CLR,,0.06,WeatherDisplay:10.37,2013-08-18 13:08:00,
2013-08-18 09:13:00,69.5,68.3,30.14,SSW,211,3.5,3.5,96,0.00,CLR,,0.06,WeatherDisplay:10.37,2013-08-18 13:13:00,
2013-08-18 09:18:00,69.6,68.4,30.15,ENE,77,0.0,0.0,96,0.00,CLR,,0.06,WeatherDisplay:10.37,2013-08-18 13:18:00,
2013-08-18 09:23:00,69.6,68.4,30.15,East,79,0.0,0.0,96,0.00,CLR,,0.06,WeatherDisplay:10.37,2013-08-18 13:23:00,
2013-08-18 09:28:00,69.7,68.5,30.15,West,278,3.5,3.5,96,0.00,CLR,,0.06,WeatherDisplay:10.37,2013-08-18 13:28:00,
2013-08-18 09:33:00,69.7,68.5,30.15,SW,217,3.5,3.5,96,0.00,CLR,,0.06,WeatherDisplay:10.37,2013-08-18 13:33:00,
2013-08-18 09:38:00,69.8,68.6,30.15,West,278,3.5,3.5,96,0.00,CLR,,0.06,WeatherDisplay:10.37,2013-08-18 13:38:00,
2013-08-18 09:43:00,70.0,68.8,30.15,WSW,239,0.0,0.0,96,0.00,CLR,,0.06,WeatherDisplay:10.37,2013-08-18 13:43:00,
2013-08-18 09:48:00,70.3,68.8,30.16,West,274,2.3,2.3,95,0.00,CLR,,0.06,WeatherDisplay:10.37,2013-08-18 13:48:00,
2013-08-18 09:53:00,70.8,69.6,30.16,NW,304,3.5,3.5,96,0.00,CLR,,0.06,WeatherDisplay:10.37,2013-08-18 13:53:00,
2013-08-18 09:58:00,71.0,69.2,30.16,WSW,253,3.5,3.5,94,0.00,CLR,,0.06,WeatherDisplay:10.37,2013-08-18 13:58:00,
2013-08-18 10:03:00,71.6,69.8,30.16,SSE,148,0.0,0.0,94,0.00,CLR,,0.06,WeatherDisplay:10.37,2013-08-18 14:03:00,
2013-08-18 10:08:00,71.9,69.4,30.16,West,273,2.3,2.3,92,0.00,CLR,,0.06,WeatherDisplay:10.37,2013-08-18 14:08:00,
2013-08-18 10:13:00,72.0,69.5,30.16,SW,225,0.0,0.0,92,0.00,CLR,,0.06,WeatherDisplay:10.37,2013-08-18 14:13:00,
2013-08-18 10:18:00,72.0,69.2,30.16,SSE,165,3.5,3.5,91,0.00,CLR,,0.06,WeatherDisplay:10.37,2013-08-18 14:18:00,
2013-08-18 10:23:00,72.0,69.5,30.16,West,281,0.0,0.0,92,0.00,CLR,,0.06,WeatherDisplay:10.37,2013-08-18 14:23:00,
2013-08-18 10:28:00,72.0,68.9,30.17,NNW,328,3.5,3.5,90,0.00,CLR,,0.06,WeatherDisplay:10.37,2013-08-18 14:28:00,
2013-08-18 10:33:00,72.1,69.0,30.17,SW,214,3.5,3.5,90,0.00,CLR,,0.06,WeatherDisplay:10.37,2013-08-18 14:33:00,
2013-08-18 10:38:00,72.4,69.3,30.16,West,264,3.5,3.5,90,0.00,CLR,,0.06,WeatherDisplay:10.37,2013-08-18 14:38:00,
2013-08-18 10:43:00,72.4,69.3,30.17,SW,235,2.3,0.0,90,0.00,CLR,,0.06,WeatherDisplay:10.37,2013-08-18 14:43:00,
2013-08-18 10:48:00,72.5,69.1,30.17,WNW,287,3.5,3.5,89,0.00,CLR,,0.06,WeatherDisplay:10.37,2013-08-18 14:48:00,
2013-08-18 10:53:00,72.7,68.9,30.17,WSW,250,4.6,4.6,88,0.00,CLR,,0.06,WeatherDisplay:10.37,2013-08-18 14:53:00,
2013-08-18 10:58:00,72.6,68.8,30.17,West,269,1.1,1.1,88,0.00,CLR,,0.06,WeatherDisplay:10.37,2013-08-18 14:58:00,
2013-08-18 11:03:00,72.9,69.1,30.17,SE,129,3.5,3.5,88,0.00,CLR,,0.06,WeatherDisplay:10.37,2013-08-18 15:03:00,
2013-08-18 11:08:00,73.5,70.1,30.17,NNW,338,3.0,3.0,89,0.00,CLR,,0.06,WeatherDisplay:10.37,2013-08-18 15:08:00,
2013-08-18 11:13:00,74.1,70.3,30.17,NNE,31,1.1,1.1,88,0.00,CLR,,0.06,WeatherDisplay:10.37,2013-08-18 15:13:00,
2013-08-18 11:18:00,74.6,70.1,30.17,West,277,2.3,2.3,86,0.00,CLR,,0.06,WeatherDisplay:10.37,2013-08-18 15:18:00,
2013-08-18 11:23:00,74.7,70.2,30.17,ENE,64,0.0,0.0,86,0.00,CLR,,0.06,WeatherDisplay:10.37,2013-08-18 15:23:00,
2013-08-18 11:28:00,74.7,70.2,30.17,NNE,12,1.1,1.1,86,0.00,CLR,,0.06,WeatherDisplay:10.37,2013-08-18 15:28:00,
2013-08-18 11:33:00,74.6,69.8,30.17,North,352,2.3,2.3,85,0.00,CLR,,0.06,WeatherDisplay:10.37,2013-08-18 15:33:00,
2013-08-18 11:38:00,74.6,70.1,30.17,NNE,26,1.1,1.1,86,0.00,CLR,,0.06,WeatherDisplay:10.37,2013-08-18 15:38:00,
2013-08-18 11:43:00,74.8,70.0,30.17,West,271,1.1,1.1,85,0.00,CLR,,0.06,WeatherDisplay:10.37,2013-08-18 15:43:00,
2013-08-18 11:48:00,75.0,70.5,30.17,West,269,3.5,3.5,86,0.00,CLR,,0.06,WeatherDisplay:10.37,2013-08-18 15:48:00,
2013-08-18 11:53:00,75.7,70.9,30.17,NW,318,2.0,2.0,85,0.00,CLR,,0.06,WeatherDisplay:10.37,2013-08-18 15:53:00,
2013-08-18 11:58:00,76.2,70.7,30.17,North,354,2.3,2.3,83,0.00,CLR,,0.06,WeatherDisplay:10.37,2013-08-18 15:58:00,
2013-08-18 12:03:00,77.2,71.3,30.17,WNW,301,0.0,0.3,82,0.00,CLR,,0.06,WeatherDisplay:10.37,2013-08-18 16:03:00,
2013-08-18 12:08:00,77.7,70.7,30.16,West,264,4.6,4.6,79,0.00,CLR,,0.06,WeatherDisplay:10.37,2013-08-18 16:08:00,
2013-08-18 12:13:00,77.3,70.6,30.17,West,262,1.1,1.2,80,0.00,CLR,,0.06,WeatherDisplay:10.37,2013-08-18 16:13:00,
2013-08-18 12:18:00,77.7,70.7,30.16,NW,323,2.3,2.3,79,0.00,CLR,,0.06,WeatherDisplay:10.37,2013-08-18 16:18:00,
2013-08-18 12:23:00,78.1,71.1,30.16,NNE,29,3.5,3.5,79,0.00,CLR,,0.06,WeatherDisplay:10.37,2013-08-18 16:23:00,
2013-08-18 12:28:00,78.0,71.0,30.16,NE,41,2.3,2.3,79,0.00,CLR,,0.06,WeatherDisplay:10.37,2013-08-18 16:28:00,
2013-08-18 12:33:00,78.1,69.9,30.16,West,278,4.6,4.6,76,0.00,CLR,,0.06,WeatherDisplay:10.37,2013-08-18 16:33:00,
2013-08-18 12:38:00,78.0,70.6,30.16,West,281,3.5,3.5,78,0.00,CLR,,0.06,WeatherDisplay:10.37,2013-08-18 16:38:00,
2013-08-18 12:43:00,78.0,70.6,30.16,WNW,291,3.5,3.5,78,0.00,CLR,,0.06,WeatherDisplay:10.37,2013-08-18 16:43:00,
2013-08-18 12:48:00,77.9,70.1,30.15,NNE,15,5.8,5.8,77,0.00,CLR,,0.06,WeatherDisplay:10.37,2013-08-18 16:48:00,
2013-08-18 12:53:00,78.3,71.6,30.15,SW,233,3.5,3.5,80,0.00,CLR,,0.06,WeatherDisplay:10.37,2013-08-18 16:53:00,
2013-08-18 12:58:00,78.9,71.1,30.15,WSW,255,3.5,3.5,77,0.00,CLR,,0.06,WeatherDisplay:10.37,2013-08-18 16:58:00,
2013-08-18 13:03:00,79.7,71.8,30.15,NNE,14,2.3,2.3,77,0.00,CLR,,0.06,WeatherDisplay:10.37,2013-08-18 17:03:00,
2013-08-18 13:08:00,79.6,71.4,30.15,NW,323,3.5,3.5,76,0.00,CLR,,0.06,WeatherDisplay:10.37,2013-08-18 17:08:00,
2013-08-18 13:13:00,79.3,70.3,30.15,NE,41,8.1,8.1,74,0.00,CLR,,0.06,WeatherDisplay:10.37,2013-08-18 17:13:00,
2013-08-18 13:18:00,79.0,70.4,30.15,SE,124,5.8,5.8,75,0.00,CLR,,0.06,WeatherDisplay:10.37,2013-08-18 17:18:00,
2013-08-18 13:23:00,79.0,70.8,30.15,West,263,3.5,3.5,76,0.00,CLR,,0.06,WeatherDisplay:10.37,2013-08-18 17:23:00,
2013-08-18 13:28:00,79.3,70.7,30.15,WNW,284,3.5,3.5,75,0.00,CLR,,0.06,WeatherDisplay:10.37,2013-08-18 17:28:00,
2013-08-18 13:33:00,79.7,71.5,30.15,West,270,1.1,0.0,76,0.00,CLR,,0.06,WeatherDisplay:10.37,2013-08-18 17:33:00,
2013-08-18 13:38:00,79.8,71.9,30.14,NW,314,2.3,2.3,77,0.00,CLR,,0.06,WeatherDisplay:10.37,2013-08-18 17:38:00,
2013-08-18 13:43:00,80.1,71.1,30.15,WSW,252,3.5,3.5,74,0.00,CLR,,0.06,WeatherDisplay:10.37,2013-08-18 17:43:00,
2013-08-18 13:48:00,80.2,70.8,30.15,West,281,5.8,5.8,73,0.00,CLR,,0.06,WeatherDisplay:10.37,2013-08-18 17:48:00,
2013-08-18 13:53:00,80.4,70.9,30.15,NW,318,5.8,5.8,73,0.00,CLR,,0.06,WeatherDisplay:10.37,2013-08-18 17:53:00,
2013-08-18 13:58:00,80.3,71.3,30.15,WSW,245,5.0,5.0,74,0.00,CLR,,0.06,WeatherDisplay:10.37,2013-08-18 17:58:00,
2013-08-18 14:03:00,80.2,70.8,30.15,WSW,246,2.0,2.5,73,0.00,CLR,,0.06,WeatherDisplay:10.37,2013-08-18 18:03:00,
2013-08-18 14:08:00,80.2,71.2,30.15,NW,305,2.3,2.3,74,0.00,CLR,,0.06,WeatherDisplay:10.37,2013-08-18 18:08:00,
2013-08-18 14:13:00,80.5,70.6,30.15,WSW,240,3.5,3.5,72,0.00,CLR,,0.06,WeatherDisplay:10.37,2013-08-18 18:13:00,
2013-08-18 14:18:00,81.0,71.5,30.15,NNE,12,2.3,2.3,73,0.00,CLR,,0.06,WeatherDisplay:10.37,2013-08-18 18:18:00,
2013-08-18 14:23:00,81.2,70.9,30.14,SSE,155,3.5,3.5,71,0.00,CLR,,0.06,WeatherDisplay:10.37,2013-08-18 18:23:00,
2013-08-18 14:28:00,81.4,71.1,30.14,NNE,28,3.5,3.5,71,0.00,CLR,,0.06,WeatherDisplay:10.37,2013-08-18 18:28:00,
2013-08-18 14:34:00,81.3,70.6,30.14,South,173,4.6,4.6,70,0.00,CLR,,0.06,WeatherDisplay:10.37,2013-08-18 18:34:00,
2013-08-18 14:39:00,81.3,70.2,30.14,WSW,255,5.8,5.8,69,0.00,CLR,,0.06,WeatherDisplay:10.37,2013-08-18 18:39:00,
2013-08-18 14:44:00,81.0,70.3,30.14,NW,305,4.6,4.6,70,0.00,CLR,,0.06,WeatherDisplay:10.37,2013-08-18 18:44:00,
2013-08-18 14:49:00,80.8,70.5,30.14,ENE,75,3.0,3.0,71,0.00,CLR,,0.06,WeatherDisplay:10.37,2013-08-18 18:49:00,
2013-08-18 14:54:00,80.9,71.4,30.14,WNW,283,3.0,3.0,73,0.00,CLR,,0.06,WeatherDisplay:10.37,2013-08-18 18:54:00,
2013-08-18 14:59:00,80.5,70.2,30.14,North,352,4.0,4.0,71,0.00,CLR,,0.06,WeatherDisplay:10.37,2013-08-18 18:59:00,
2013-08-18 15:04:00,80.4,70.5,30.14,NW,304,1.1,1.1,72,0.00,CLR,,0.06,WeatherDisplay:10.37,2013-08-18 19:04:00,
2013-08-18 15:09:00,80.1,70.7,30.14,WNW,295,3.0,3.0,73,0.00,CLR,,0.06,WeatherDisplay:10.37,2013-08-18 19:09:00,
2013-08-18 15:14:00,80.0,70.2,30.13,SW,224,3.5,3.5,72,0.00,CLR,,0.06,WeatherDisplay:10.37,2013-08-18 19:14:00,
2013-08-18 15:19:00,79.9,70.5,30.13,East,94,1.1,1.1,73,0.00,CLR,,0.06,WeatherDisplay:10.37,2013-08-18 19:19:00,
2013-08-18 15:24:00,80.1,69.4,30.13,West,264,3.5,3.5,70,0.00,CLR,,0.06,WeatherDisplay:10.37,2013-08-18 19:24:00,
2013-08-18 15:29:00,80.1,70.3,30.13,NE,34,2.0,2.0,72,0.00,CLR,,0.06,WeatherDisplay:10.37,2013-08-18 19:29:00,
2013-08-18 15:34:00,80.5,71.0,30.12,West,262,1.1,1.1,73,0.00,CLR,,0.06,WeatherDisplay:10.37,2013-08-18 19:34:00,
2013-08-18 15:39:00,81.0,70.7,30.12,West,270,2.0,2.0,71,0.00,CLR,,0.06,WeatherDisplay:10.37,2013-08-18 19:39:00,
2013-08-18 15:44:00,80.6,70.7,30.12,WNW,300,3.5,3.5,72,0.00,CLR,,0.06,WeatherDisplay:10.37,2013-08-18 19:44:00,
2013-08-18 15:49:00,80.1,70.7,30.12,NNE,29,1.1,0.0,73,0.00,CLR,,0.06,WeatherDisplay:10.37,2013-08-18 19:49:00,
2013-08-18 15:54:00,80.5,71.4,30.12,WNW,287,0.0,0.0,74,0.00,CLR,,0.06,WeatherDisplay:10.37,2013-08-18 19:54:00,
2013-08-18 15:59:00,80.3,70.4,30.12,North,358,1.1,0.0,72,0.00,CLR,,0.06,WeatherDisplay:10.37,2013-08-18 19:59:00,
2013-08-18 16:04:00,79.9,70.5,30.12,WSW,253,1.1,1.1,73,0.00,CLR,,0.06,WeatherDisplay:10.37,2013-08-18 20:04:00,
2013-08-18 16:09:00,79.9,70.5,30.12,NNE,13,1.1,1.1,73,0.00,CLR,,0.06,WeatherDisplay:10.37,2013-08-18 20:09:00,
2013-08-18 16:14:00,79.9,70.9,30.12,SW,235,1.1,1.1,74,0.00,CLR,,0.06,WeatherDisplay:10.37,2013-08-18 20:14:00,
2013-08-18 16:19:00,80.3,71.3,30.12,NNE,16,2.0,2.0,74,0.00,CLR,,0.06,WeatherDisplay:10.37,2013-08-18 20:19:00,
2013-08-18 16:24:00,80.2,70.8,30.12,North,357,0.0,0.0,73,0.00,CLR,,0.06,WeatherDisplay:10.37,2013-08-18 20:24:00,
2013-08-18 16:29:00,79.7,70.7,30.12,West,275,3.5,3.5,74,0.00,CLR,,0.06,WeatherDisplay:10.37,2013-08-18 20:29:00,
2013-08-18 16:34:00,79.4,70.8,30.12,NNE,30,1.0,1.0,75,0.00,CLR,,0.06,WeatherDisplay:10.37,2013-08-18 20:34:00,
2013-08-18 16:39:00,79.1,70.5,30.12,WNW,291,3.5,3.5,75,0.00,CLR,,0.06,WeatherDisplay:10.37,2013-08-18 20:39:00,
2013-08-18 16:44:00,79.1,70.5,30.12,West,266,0.0,0.0,75,0.00,CLR,,0.06,WeatherDisplay:10.37,2013-08-18 20:44:00,
2013-08-18 16:49:00,79.3,70.7,30.12,NNE,27,1.1,1.1,75,0.00,CLR,,0.06,WeatherDisplay:10.37,2013-08-18 20:49:00,
2013-08-18 16:54:00,78.9,70.7,30.12,West,270,0.0,0.0,76,0.00,CLR,,0.06,WeatherDisplay:10.37,2013-08-18 20:54:00,
2013-08-18 16:59:00,78.5,70.7,30.12,NW,314,2.3,2.3,77,0.00,CLR,,0.06,WeatherDisplay:10.37,2013-08-18 20:59:00,
2013-08-18 17:04:00,78.5,71.1,30.12,West,281,1.1,0.0,78,0.00,CLR,,0.06,WeatherDisplay:10.37,2013-08-18 21:04:00,
2013-08-18 17:09:00,79.2,71.0,30.12,NW,315,0.0,0.0,76,0.00,CLR,,0.06,WeatherDisplay:10.37,2013-08-18 21:09:00,
2013-08-18 17:14:00,79.9,71.3,30.12,NNE,26,3.5,3.5,75,0.00,CLR,,0.06,WeatherDisplay:10.37,2013-08-18 21:14:00,
2013-08-18 17:19:00,79.7,70.7,30.12,WNW,302,3.5,3.5,74,0.00,CLR,,0.06,WeatherDisplay:10.37,2013-08-18 21:19:00,
2013-08-18 17:24:00,80.0,71.4,30.12,West,265,0.0,0.2,75,0.00,CLR,,0.06,WeatherDisplay:10.37,2013-08-18 21:24:00,
2013-08-18 17:29:00,80.0,70.6,30.12,WSW,255,3.5,3.5,73,0.00,CLR,,0.06,WeatherDisplay:10.37,2013-08-18 21:29:00,
2013-08-18 17:34:00,79.8,71.2,30.12,West,280,1.1,1.1,75,0.00,CLR,,0.06,WeatherDisplay:10.37,2013-08-18 21:34:00,
2013-08-18 17:39:00,79.6,71.0,30.12,NNE,26,2.3,2.3,75,0.00,CLR,,0.06,WeatherDisplay:10.37,2013-08-18 21:39:00,
2013-08-18 17:44:00,79.4,71.6,30.12,ENE,67,0.0,0.0,77,0.00,CLR,,0.06,WeatherDisplay:10.37,2013-08-18 21:44:00,
2013-08-18 17:49:00,79.2,71.0,30.12,NE,34,0.0,0.0,76,0.00,CLR,,0.06,WeatherDisplay:10.37,2013-08-18 21:49:00,
2013-08-18 17:54:00,79.3,71.1,30.12,ENE,58,0.0,0.0,76,0.00,CLR,,0.06,WeatherDisplay:10.37,2013-08-18 21:54:00,
2013-08-18 17:59:00,79.7,71.5,30.12,WNW,282,3.5,3.5,76,0.00,CLR,,0.06,WeatherDisplay:10.37,2013-08-18 21:59:00,
2013-08-18 18:04:00,79.6,71.4,30.12,West,278,2.3,2.3,76,0.00,CLR,,0.06,WeatherDisplay:10.37,2013-08-18 22:04:00,
2013-08-18 18:09:00,79.5,70.9,30.12,North,6,2.3,2.3,75,0.00,CLR,,0.06,WeatherDisplay:10.37,2013-08-18 22:09:00,
2013-08-18 18:14:00,79.5,71.3,30.12,NNE,32,2.0,2.0,76,0.00,CLR,,0.06,WeatherDisplay:10.37,2013-08-18 22:14:00,
2013-08-18 18:19:00,79.3,70.7,30.12,North,8,1.1,1.1,75,0.00,CLR,,0.06,WeatherDisplay:10.37,2013-08-18 22:19:00,
2013-08-18 18:24:00,78.8,70.6,30.13,North,359,0.0,0.0,76,0.00,CLR,,0.06,WeatherDisplay:10.37,2013-08-18 22:24:00,
2013-08-18 18:29:00,78.2,70.0,30.12,North,352,1.0,0.0,76,0.00,CLR,,0.06,WeatherDisplay:10.37,2013-08-18 22:29:00,
2013-08-18 18:34:00,78.0,70.2,30.13,West,281,3.5,3.5,77,0.00,CLR,,0.06,WeatherDisplay:10.37,2013-08-18 22:34:00,
2013-08-18 18:39:00,77.5,69.7,30.13,North,8,2.3,2.3,77,0.00,CLR,,0.06,WeatherDisplay:10.37,2013-08-18 22:39:00,
2013-08-18 18:44:00,76.6,69.2,30.12,NNE,20,0.0,0.0,78,0.00,CLR,,0.06,WeatherDisplay:10.37,2013-08-18 22:44:00,
2013-08-18 18:49:00,76.2,69.2,30.12,NNE,22,0.0,0.0,79,0.00,CLR,,0.06,WeatherDisplay:10.37,2013-08-18 22:49:00,
2013-08-18 18:54:00,76.1,69.5,30.12,West,264,0.0,0.0,80,0.00,CLR,,0.06,WeatherDisplay:10.37,2013-08-18 22:54:00,
2013-08-18 18:59:00,75.9,69.6,30.12,NW,325,0.0,0.0,81,0.00,CLR,,0.06,WeatherDisplay:10.37,2013-08-18 22:59:00,
2013-08-18 19:04:00,75.7,69.5,30.12,NW,318,0.0,0.0,81,0.00,CLR,,0.06,WeatherDisplay:10.37,2013-08-18 23:04:00,
2013-08-18 19:09:00,75.4,69.5,30.12,NW,314,0.0,0.0,82,0.00,CLR,,0.06,WeatherDisplay:10.37,2013-08-18 23:09:00,
2013-08-18 19:14:00,75.0,69.1,30.12,West,275,3.5,3.5,82,0.00,CLR,,0.06,WeatherDisplay:10.37,2013-08-18 23:14:00,
2013-08-18 19:19:00,74.6,69.1,30.12,WNW,291,0.0,0.0,83,0.00,CLR,,0.06,WeatherDisplay:10.37,2013-08-18 23:19:00,
2013-08-18 19:24:00,74.3,69.1,30.13,North,351,1.1,0.0,84,0.00,CLR,,0.06,WeatherDisplay:10.37,2013-08-18 23:24:00,
2013-08-18 19:29:00,74.0,68.9,30.12,WNW,295,1.1,1.1,84,0.00,CLR,,0.06,WeatherDisplay:10.37,2013-08-18 23:29:00,
2013-08-18 19:34:00,73.7,68.6,30.13,WNW,295,0.0,0.0,84,0.00,CLR,,0.06,WeatherDisplay:10.37,2013-08-18 23:34:00,
2013-08-18 19:39:00,73.5,68.7,30.13,WNW,295,0.0,0.0,85,0.00,CLR,,0.06,WeatherDisplay:10.37,2013-08-18 23:39:00,
2013-08-18 19:44:00,73.3,68.5,30.13,WNW,295,0.0,0.0,85,0.00,CLR,,0.06,WeatherDisplay:10.37,2013-08-18 23:44:00,
2013-08-18 19:49:00,73.1,68.7,30.13,WNW,295,0.0,0.0,86,0.00,CLR,,0.06,WeatherDisplay:10.37,2013-08-18 23:49:00,
2013-08-18 19:54:00,72.9,68.5,30.14,WNW,295,0.0,0.0,86,0.00,CLR,,0.06,WeatherDisplay:10.37,2013-08-18 23:54:00,
2013-08-18 19:59:00,72.7,68.3,30.14,WNW,295,0.0,0.0,86,0.00,CLR,,0.06,WeatherDisplay:10.37,2013-08-18 23:59:00,
2013-08-18 20:04:00,72.5,68.4,30.14,WNW,295,0.0,0.0,87,0.00,CLR,,0.06,WeatherDisplay:10.37,2013-08-19 00:04:00,
2013-08-18 20:09:00,72.2,68.1,30.14,WNW,295,0.0,0.0,87,0.00,CLR,,0.06,WeatherDisplay:10.37,2013-08-19 00:09:00,
2013-08-18 20:14:00,72.0,67.9,30.14,WNW,295,0.0,0.0,87,0.00,CLR,,0.06,WeatherDisplay:10.37,2013-08-19 00:14:00,
2013-08-18 20:19:00,71.8,67.7,30.14,WNW,295,0.0,0.0,87,0.00,CLR,,0.06,WeatherDisplay:10.37,2013-08-19 00:19:00,
2013-08-18 20:24:00,71.6,67.9,30.14,WNW,295,0.0,0.0,88,0.00,CLR,,0.06,WeatherDisplay:10.37,2013-08-19 00:24:00,
2013-08-18 20:29:00,71.4,67.7,30.14,WNW,295,0.0,0.0,88,0.00,CLR,,0.06,WeatherDisplay:10.37,2013-08-19 00:29:00,
2013-08-18 20:34:00,71.2,67.8,30.14,WNW,295,0.0,0.0,89,0.00,,,0.06,WeatherDisplay:10.37,2013-08-19 00:34:00,
2013-08-18 20:39:00,71.0,67.6,30.14,WNW,295,0.0,0.0,89,0.00,,,0.06,WeatherDisplay:10.37,2013-08-19 00:39:00,
2013-08-18 20:44:00,70.8,67.4,30.15,WNW,297,0.0,0.0,89,0.00,,,0.06,WeatherDisplay:10.37,2013-08-19 00:44:00,
2013-08-18 20:49:00,70.7,67.6,30.15,WNW,298,0.0,0.0,90,0.00,,,0.06,WeatherDisplay:10.37,2013-08-19 00:49:00,
2013-08-18 20:54:00,70.5,67.4,30.15,NW,304,0.0,0.0,90,0.00,,,0.06,WeatherDisplay:10.37,2013-08-19 00:54:00,
2013-08-18 20:59:00,70.4,67.3,30.15,NW,304,0.0,0.0,90,0.00,,,0.06,WeatherDisplay:10.37,2013-08-19 00:59:00,
2013-08-18 21:04:00,70.3,67.2,30.15,NW,304,0.0,0.0,90,0.00,,,0.06,WeatherDisplay:10.37,2013-08-19 01:04:00,
2013-08-18 21:09:00,70.2,67.1,30.15,NW,304,0.0,0.0,90,0.00,,,0.06,WeatherDisplay:10.37,2013-08-19 01:09:00,
2013-08-18 21:14:00,70.1,67.0,30.15,NW,304,0.0,0.0,90,0.00,,,0.06,WeatherDisplay:10.37,2013-08-19 01:14:00,
2013-08-18 21:19:00,70.0,67.3,30.15,NW,304,0.0,0.0,91,0.00,,,0.06,WeatherDisplay:10.37,2013-08-19 01:19:00,
2013-08-18 21:24:00,69.9,67.2,30.16,WNW,303,0.0,0.0,91,0.00,,,0.06,WeatherDisplay:10.37,2013-08-19 01:24:00,
2013-08-18 21:29:00,69.7,67.0,30.16,West,276,0.0,0.0,91,0.00,,,0.06,WeatherDisplay:10.37,2013-08-19 01:29:00,
2013-08-18 21:34:00,69.7,67.3,30.16,West,276,0.0,0.0,92,0.00,,,0.06,WeatherDisplay:10.37,2013-08-19 01:34:00,
2013-08-18 21:39:00,69.5,67.1,30.16,West,275,0.0,0.0,92,0.00,,,0.06,WeatherDisplay:10.37,2013-08-19 01:39:00,
2013-08-18 21:44:00,69.4,67.0,30.16,West,276,0.0,0.0,92,0.00,,,0.06,WeatherDisplay:10.37,2013-08-19 01:44:00,
2013-08-18 21:49:00,69.3,66.9,30.17,West,275,0.0,0.0,92,0.00,,,0.06,WeatherDisplay:10.37,2013-08-19 01:49:00,
2013-08-18 21:54:00,69.2,66.8,30.17,West,275,0.0,0.0,92,0.00,,,0.06,WeatherDisplay:10.37,2013-08-19 01:54:00,
2013-08-18 21:59:00,69.1,66.7,30.17,West,275,0.0,0.0,92,0.00,,,0.06,WeatherDisplay:10.37,2013-08-19 01:59:00,
2013-08-18 22:04:00,69.0,66.6,30.17,West,276,0.0,0.1,92,0.00,,,0.06,WeatherDisplay:10.37,2013-08-19 02:04:00,
2013-08-18 22:09:00,69.0,66.6,30.17,West,278,1.1,0.0,92,0.00,,,0.06,WeatherDisplay:10.37,2013-08-19 02:09:00,
2013-08-18 22:14:00,68.9,66.5,30.17,West,278,0.0,0.0,92,0.00,,,0.06,WeatherDisplay:10.37,2013-08-19 02:14:00,
2013-08-18 22:19:00,68.9,66.5,30.17,West,278,0.0,0.0,92,0.00,,,0.06,WeatherDisplay:10.37,2013-08-19 02:19:00,
2013-08-18 22:24:00,68.8,66.7,30.17,West,278,0.0,0.0,93,0.00,,,0.06,WeatherDisplay:10.37,2013-08-19 02:24:00,
2013-08-18 22:29:00,68.7,66.6,30.17,West,278,0.0,0.0,93,0.00,,,0.06,WeatherDisplay:10.37,2013-08-19 02:29:00,
2013-08-18 22:34:00,68.7,66.6,30.17,West,278,0.0,0.0,93,0.00,,,0.06,WeatherDisplay:10.37,2013-08-19 02:34:00,
2013-08-18 22:39:00,68.6,66.5,30.17,West,278,0.0,0.0,93,0.00,,,0.06,WeatherDisplay:10.37,2013-08-19 02:39:00,
2013-08-18 22:44:00,68.6,66.5,30.17,West,278,1.1,0.0,93,0.00,,,0.06,WeatherDisplay:10.37,2013-08-19 02:44:00,
2013-08-18 22:49:00,68.4,66.3,30.17,NW,319,0.0,0.0,93,0.00,,,0.06,WeatherDisplay:10.37,2013-08-19 02:49:00,
2013-08-18 22:54:00,68.4,66.3,30.18,NW,319,0.0,0.0,93,0.00,,,0.06,WeatherDisplay:10.37,2013-08-19 02:54:00,
2013-08-18 22:59:00,68.3,66.2,30.18,NNW,333,0.0,0.0,93,0.00,,,0.06,WeatherDisplay:10.37,2013-08-19 02:59:00,
2013-08-18 23:04:00,68.2,66.1,30.17,NNW,333,0.0,0.0,93,0.00,,,0.06,WeatherDisplay:10.37,2013-08-19 03:04:00,
2013-08-18 23:09:00,68.1,66.0,30.17,NNW,333,0.0,0.0,93,0.00,,,0.06,WeatherDisplay:10.37,2013-08-19 03:09:00,
2013-08-18 23:14:00,68.1,66.0,30.17,NNW,333,0.0,0.0,93,0.00,,,0.06,WeatherDisplay:10.37,2013-08-19 03:14:00,
2013-08-18 23:19:00,68.0,65.9,30.17,NNW,333,0.0,0.0,93,0.00,,,0.06,WeatherDisplay:10.37,2013-08-19 03:19:00,
2013-08-18 23:24:00,67.9,65.8,30.17,NNW,333,0.0,0.0,93,0.00,,,0.06,WeatherDisplay:10.37,2013-08-19 03:24:00,
2013-08-18 23:29:00,67.9,65.8,30.17,NNW,333,1.1,1.1,93,0.00,,,0.06,WeatherDisplay:10.37,2013-08-19 03:29:00,
2013-08-18 23:34:00,67.8,65.7,30.17,NNW,333,0.0,0.0,93,0.00,,,0.06,WeatherDisplay:10.37,2013-08-19 03:34:00,
2013-08-18 23:39:00,67.7,65.6,30.17,North,353,0.0,0.0,93,0.00,,,0.06,WeatherDisplay:10.37,2013-08-19 03:39:00,
2013-08-18 23:44:00,67.7,65.6,30.17,North,353,0.0,0.0,93,0.00,,,0.06,WeatherDisplay:10.37,2013-08-19 03:44:00,
2013-08-18 23:49:00,67.6,65.5,30.17,North,352,0.0,0.0,93,0.00,,,0.06,WeatherDisplay:10.37,2013-08-19 03:49:00,
2013-08-18 23:54:00,67.6,65.5,30.17,North,352,0.0,0.0,93,0.00,,,0.06,WeatherDisplay:10.37,2013-08-19 03:54:00,
2013-08-18 23:59:00,67.5,65.7,30.17,North,353,0.0,0.0,94,0.00,,,0.06,WeatherDisplay:10.37,2013-08-19 03:59:00,